EDT,Max TemperatureF,Mean TemperatureF,Min TemperatureF,Max Dew PointF,MeanDew PointF,Min DewpointF,Max Humidity, Mean Humidity, Min Humidity, Max Sea Level PressureIn, Mean Sea Level PressureIn, Min Sea Level PressureIn, Max VisibilityMiles, Mean VisibilityMiles, Min VisibilityMiles, Max Wind SpeedMPH, Mean Wind SpeedMPH, Max Gust SpeedMPH,PrecipitationIn, CloudCover, Events, WindDirDegrees
2013-4-1,45,36,28,40,24,12,87,66,42,30.04,29.83,29.62,10,8,2,17,10,29,0.00,6,Snow,284
2013-4-2,34,29,24,20,17,11,84,65,42,30.18,30.10,30.04,10,6,0,18,8,26,0.01,7,Fog-Snow,284
2013-4-3,34,28,23,18,14,12,69,56,45,30.45,30.32,30.18,10,10,10,16,6,24,0.00,4,,305
2013-4-4,53,36,19,14,10,5,74,41,15,30.40,30.20,29.96,10,10,10,10,4,,0.00,0,,194
2013-4-5,44,36,27,29,20,9,66,50,28,30.20,30.04,29.91,10,10,10,14,6,23,0.00,2,,318
2013-4-6,54,38,23,21,15,9,85,46,17,30.30,30.19,29.99,10,10,10,9,3,17,0.00,2,,148
2013-4-7,70,56,41,44,33,15,76,44,26,30.03,29.89,29.81,10,9,7,22,9,33,0.00,1,Rain,241
2013-4-8,69,53,37,52,40,33,86,62,40,30.06,29.96,29.86,10,8,3,15,6,24,0.03,4,,185
2013-4-9,73,58,44,52,45,41,87,68,42,30.11,30.01,29.87,10,7,2,12,7,21,0.00,5,,255
2013-4-10,69,56,43,61,51,41,94,87,67,29.95,29.88,29.81,10,5,0,18,5,28,0.80,8,Fog-Rain,350
2013-4-11,50,46,42,46,43,41,100,93,83,29.91,29.84,29.65,10,4,0,15,7,26,0.15,7,Fog-Rain,55
2013-4-12,59,49,39,56,46,31,100,86,70,29.83,29.60,29.48,10,6,1,21,8,34,0.38,8,Rain,239
2013-4-13,43,38,34,36,32,27,89,76,60,30.01,29.90,29.82,10,9,6,17,8,24,0.03,8,Rain,241
2013-4-14,48,39,30,31,29,26,85,67,50,30.15,30.09,30.03,10,10,8,8,5,,0.00,4,,178
2013-4-15,71,58,46,47,40,31,65,52,38,30.08,30.04,30.00,10,10,10,14,6,25,0.00,4,,167
2013-4-16,68,58,48,57,50,45,89,78,64,30.21,30.10,30.01,10,8,2,15,7,21,0.06,6,Rain,207
2013-4-17,68,54,43,45,37,33,86,54,28,30.31,30.22,30.10,10,10,8,10,6,,0.00,4,,38
2013-4-18,82,71,60,58,54,48,78,56,38,30.08,29.87,29.71,10,9,6,20,8,32,0.00,3,Rain,180
2013-4-19,71,55,39,57,44,27,93,71,51,29.81,29.59,29.43,10,7,0,22,12,34,0.36,6,Fog-Rain,227
2013-4-20,39,34,30,30,26,19,87,72,48,30.43,30.03,29.83,10,6,1,18,12,33,0.02,7,Snow,263
2013-4-21,50,37,26,28,22,18,85,59,30,30.64,30.54,30.45,10,10,7,9,4,,0.00,0,,47
2013-4-22,62,49,37,29,25,21,57,40,27,30.49,30.38,30.28,10,10,10,8,4,,0.00,0,,121
2013-4-23,69,54,39,33,31,25,70,42,27,30.28,30.12,29.93,10,10,10,12,5,18,0.00,1,,179
2013-4-24,59,47,35,54,42,31,94,85,35,30.14,29.85,29.69,10,5,1,20,9,30,0.55,8,Rain-Snow,241
2013-4-25,53,42,32,37,33,28,93,78,40,30.35,30.22,30.12,10,8,2,15,7,30,0.07,4,Rain,224
2013-4-26,55,42,30,35,29,24,93,62,30,30.49,30.43,30.35,10,7,1,8,1,,0.01,0,,213
2013-4-27,72,54,39,32,28,27,63,37,20,30.41,30.30,30.16,10,10,10,12,2,,0.00,0,,116
2013-4-28,60,56,51,50,46,34,89,78,39,30.15,30.02,29.94,10,5,1,10,5,16,0.39,6,Rain,135
2013-4-29,62,56,50,54,51,46,94,84,72,30.03,29.98,29.93,10,7,2,8,4,,0.01,8,Rain,151
2013-4-30,72,62,53,54,51,49,94,73,45,30.19,30.10,30.03,10,8,4,10,4,16,0.01,4,,154